Weather History for Venice, Italy

Change the Weather History Date:

Tuesday, August 6, 2013

  Actual Average Record
Temperature  
Mean Temperature 84 °F -  
Max Temperature 93 °F 80 °F 93 °F (2003)
Min Temperature 75 °F 62 °F 59 °F (2000)
Cooling Degree Days 19    
Growing Degree Days 34 (Base 50)    
Moisture  
Dew Point 71 °F    
Average Humidity 66    
Maximum Humidity 100    
Minimum Humidity 38    
Precipitation  
Precipitation 0.00 in 0.10 in - ()
Sea Level Pressure  
Sea Level Pressure 29.93 in    
Wind  
Wind Speed 3 mph ()    
Max Wind Speed 8 mph    
Max Gust Speed -    
Visibility 3.8 miles    
Events      
Averages and records for this station are not official NWS values.
T = Trace of Precipitation, MM = Missing Value Source: Averaged Metar Reports

Daily Weather History Graph

Daily Weather History Graph

Search for Another Location

Airport:

Trip Planner

Search our weather history database for the weather conditions in past years. The results will help you decide how hot, cold, wet, or windy it might be!

Date:

Astronomy

Aug. 06, 2013 Rise Set
Actual Time 6:00 AM CEST 8:31 PM CEST
Civil Twilight 5:26 AM CEST 9:05 PM CEST
Nautical Twilight 4:44 AM CEST 9:46 PM CEST
Astronomical Twilight 3:56 AM CEST 10:34 PM CEST
Moon 5:37 AM CEST (8/6) 7:53 PM CEST (8/6)
Length of Visible Light 15h 38m
Length of Day
14h 31m
Waning Crescent, 0% of the Moon is Illuminated
Aug 6
Waning Crescent
Aug 6
New
Aug 14
First Quarter
Aug 21
Full
Aug 28
Last Quarter

Hourly Weather History & Observations

Time (CEST) Temp. Heat Index Dew Point Humidity Pressure Visibility Wind Dir Wind Speed Gust Speed Precip Events Conditions
12:20 AM 82.4 °F 90.9 °F 77.0 °F 84% 29.98 in - Variable 1.2 mph - N/A   Clear
12:50 AM 78.8 °F - 71.6 °F 78% 29.98 in - Variable 2.3 mph - N/A   Clear
1:20 AM 78.8 °F - 73.4 °F 83% 29.98 in - Variable 2.3 mph - N/A   Clear
1:50 AM 78.8 °F - 73.4 °F 83% 29.98 in - Variable 1.2 mph - N/A   Clear
2:20 AM 80.6 °F 86.2 °F 75.2 °F 84% 29.95 in - Variable 2.3 mph - N/A   Clear
2:50 AM 80.6 °F 86.2 °F 75.2 °F 84% 29.95 in 5.6 mi Variable 1.2 mph - N/A   Unknown
3:20 AM 82.4 °F 92.4 °F 78.8 °F 89% 29.95 in 5.6 mi Calm Calm - N/A   Unknown
3:50 AM 77.0 °F - 71.6 °F 83% 29.98 in 5.6 mi Variable 3.5 mph - N/A   Unknown
4:20 AM 75.2 °F - 71.6 °F 89% 29.95 in 3.7 mi Variable 3.5 mph - N/A   Unknown
4:50 AM 75.2 °F - 73.4 °F 94% 29.95 in 3.7 mi Variable 3.5 mph - N/A   Unknown
5:20 AM 75.2 °F - 73.4 °F 94% 29.95 in 3.1 mi Variable 3.5 mph - N/A   Mist
5:50 AM 75.2 °F - 75.2 °F 100% 29.95 in 2.2 mi Variable 3.5 mph - N/A   Mist
6:20 AM 75.2 °F - 73.4 °F 94% 29.95 in 2.2 mi North 4.6 mph - N/A   Mist
6:50 AM 75.2 °F - 73.4 °F 94% 29.95 in 2.8 mi North 4.6 mph - N/A   Mist
7:20 AM 77.0 °F - 69.8 °F 78% 29.95 in 3.7 mi North 4.6 mph - N/A   Unknown
7:50 AM 77.0 °F - 68.0 °F 74% 29.95 in - Variable 3.5 mph - N/A   Clear
8:20 AM 78.8 °F - 68.0 °F 69% 29.98 in - Variable 3.5 mph - N/A   Clear
8:50 AM 80.6 °F 82.7 °F 66.2 °F 61% 29.98 in - Variable 3.5 mph - N/A   Clear
9:20 AM 82.4 °F 83.9 °F 64.4 °F 54% 29.98 in - Variable 3.5 mph - N/A   Clear
9:50 AM 82.4 °F 84.6 °F 66.2 °F 58% 29.98 in - Variable 2.3 mph - N/A   Clear
10:20 AM 84.2 °F 86.6 °F 66.2 °F 55% 29.98 in - Variable 2.3 mph - N/A   Clear
10:50 AM 86.0 °F 89.4 °F 68.0 °F 55% 29.98 in - Variable 2.3 mph - N/A   Clear
11:20 AM 87.8 °F 91.4 °F 68.0 °F 52% 29.98 in - Variable 3.5 mph - N/A   Clear
11:50 AM 89.6 °F 92.2 °F 66.2 °F 46% 29.95 in - Variable 3.5 mph - N/A   Clear
12:20 PM 89.6 °F 90.1 °F 62.6 °F 40% 29.95 in - SE 4.6 mph - N/A   Clear
12:50 PM 89.6 °F 91.1 °F 64.4 °F 43% 29.95 in - Variable 3.5 mph - N/A   Clear
1:20 PM 91.4 °F 92.1 °F 62.6 °F 38% 29.95 in - SSE 4.6 mph - N/A   Clear
1:50 PM 91.4 °F 94.0 °F 66.2 °F 43% 29.95 in - SE 4.6 mph - N/A   Clear
2:20 PM 91.4 °F 93.2 °F 64.4 °F 41% 29.95 in - SE 4.6 mph - N/A   Clear
2:50 PM 91.4 °F 93.2 °F 64.4 °F 41% 29.92 in - SE 6.9 mph - N/A   Clear
3:20 PM 93.2 °F 96.2 °F 66.2 °F 41% 29.92 in - SSE 5.8 mph - N/A   Clear
3:50 PM 93.2 °F 94.9 °F 64.4 °F 38% 29.92 in - SSW 5.8 mph - N/A   Clear
4:20 PM 93.2 °F 96.2 °F 66.2 °F 41% 29.92 in - SSE 6.9 mph - N/A   Clear
4:50 PM 93.2 °F 97.7 °F 68.0 °F 44% 29.92 in - SE 5.8 mph - N/A   Clear
5:20 PM 93.2 °F 100.5 °F 71.6 °F 49% 29.89 in - SE 5.8 mph - N/A   Clear
5:50 PM 93.2 °F 97.7 °F 68.0 °F 44% 29.89 in - SE 5.8 mph - N/A   Clear
6:20 PM 91.4 °F 96.8 °F 69.8 °F 49% 29.89 in - SSE 5.8 mph - N/A   Clear
6:50 PM 89.6 °F 98.2 °F 73.4 °F 59% 29.89 in - SE 8.1 mph - N/A   Clear
7:20 PM 89.6 °F 98.2 °F 73.4 °F 59% 29.86 in - SSE 6.9 mph - N/A   Clear
7:50 PM 87.8 °F 95.6 °F 73.4 °F 62% 29.89 in - Variable 5.8 mph - N/A   Clear
8:20 PM 87.8 °F 97.6 °F 75.2 °F 66% 29.89 in - SSE 6.9 mph - N/A   Clear
8:50 PM 86.0 °F 96.9 °F 77.0 °F 74% 29.86 in - SSE 4.6 mph - N/A   Clear
9:20 PM 86.0 °F 95.1 °F 75.2 °F 70% 29.86 in - SSE 5.8 mph - N/A   Clear
9:50 PM 86.0 °F 95.1 °F 75.2 °F 70% 29.89 in - South 5.8 mph - N/A   Clear
10:20 PM 86.0 °F 95.1 °F 75.2 °F 70% 29.89 in - South 6.9 mph - N/A   Clear
10:50 PM 84.2 °F 94.1 °F 77.0 °F 79% 29.89 in - SSW 5.8 mph - N/A   Clear
11:20 PM 82.4 °F 89.5 °F 75.2 °F 79% 29.89 in - SSW 5.8 mph - N/A   Clear
11:50 PM 82.4 °F 89.5 °F 75.2 °F 79% 29.89 in - SSW 5.8 mph - N/A   Clear